DW0479 Weather Reports


time (UTC)temp
C
wind
direction
speed
KPH
gust
KPH
rain 1hr
cm
rain 24hr
cm
rain mn
cm
humidity
%
barometer
mb
20260505230700 26 155 12.9 25.7 0.00 0.00 0.00 57 1014.7
20260505230147 27 96 9.7 22.5 0.00 0.00 0.00 57 1014.6
20260505224700 27 132 11.3 20.9 0.00 0.00 0.00 56 1014.6
20260505223652 28 101 11.3 20.9 0.00 0.00 0.00 55 1014.6
20260505222654 28 109 9.7 19.3 0.00 0.00 0.00 53 1014.4
20260505221653 29 86 8.0 19.3 0.00 0.00 0.00 53 1014.5
20260505220654 29 100 9.7 20.9 0.00 0.00 0.00 52 1014.3
20260505215654 30 125 6.4 17.7 0.00 0.00 0.00 51 1014.3
20260505214640 29 106 8.0 20.9 0.00 0.00 0.00 51 1014.3
20260505213639 30 59 8.0 16.1 0.00 0.00 0.00 51 1014.2
20260505212640 30 90 8.0 20.9 0.00 0.00 0.00 51 1014.2
20260505211639 30 133 8.0 20.9 0.00 0.00 0.00 51 1014.3
20260505210641 30 59 4.8 14.5 0.00 0.00 0.00 50 1014.2
20260505205633 29 131 6.4 14.5 0.00 0.00 0.00 51 1014.2
20260505205113 29 155 6.4 16.1 0.00 0.00 0.00 50 1014.2
20260505203632 30 113 6.4 14.5 0.00 0.00 0.00 50 1014.3
20260505203548 29 137 9.7 19.3 0.00 0.00 0.00 52 1014.3
20260505201618 29 150 11.3 29.0 0.00 0.00 0.00 52 1014.3
20260505200617 29 106 8.0 22.5 0.00 0.00 0.00 51 1014.4
20260505195618 30 106 6.4 12.9 0.00 0.00 0.00 45 1014.5
20260505194619 31 51 4.8 12.9 0.00 0.00 0.00 48 1014.5
20260505193619 30 119 8.0 19.3 0.00 0.00 0.00 49 1014.7
20260505192615 30 19 8.0 17.7 0.00 0.00 0.00 48 1014.8
20260505192055 30 146 9.7 19.3 0.00 0.00 0.00 50 1014.9
20260505190617 30 117 8.0 20.9 0.00 0.00 0.00 49 1015.0
20260505185614 30 79 4.8 14.5 0.00 0.00 0.00 52 1015.1
20260505184613 28 117 4.8 12.9 0.00 0.00 0.00 52 1015.2
20260505183614 28 61 4.8 12.9 0.00 0.00 0.00 53 1015.3
20260505182615 28 79 6.4 14.5 0.00 0.00 0.00 53 1015.4
20260505181615 28 84 4.8 16.1 0.00 0.00 0.00 52 1015.6
20260505180614 28 98 4.8 16.1 0.00 0.00 0.00 53 1015.7
20260505175615 29 59 6.4 14.5 0.00 0.00 0.00 52 1015.7
20260505174613 29 31 8.0 19.3 0.00 0.00 0.00 51 1015.9
20260505174050 30 67 6.4 14.5 0.00 0.00 0.00 51 1015.8
20260505172616 30 92 8.0 16.1 0.00 0.00 0.00 50 1016.0
20260505171613 30 29 6.4 14.5 0.00 0.00 0.00 53 1016.0
20260505170614 28 96 6.4 16.1 0.00 0.00 0.00 51 1016.1
20260505165615 29 115 9.7 20.9 0.00 0.00 0.00 51 1016.2
20260505164613 28 95 6.4 17.7 0.00 0.00 0.00 54 1016.2
20260505163613 29 74 6.4 19.3 0.00 0.00 0.00 52 1016.2
20260505162616 29 89 6.4 16.1 0.00 0.00 0.00 53 1016.2
20260505161604 28 182 8.0 17.7 0.00 0.00 0.00 52 1016.2
20260505160605 29 88 8.0 16.1 0.00 0.00 0.00 55 1016.2
20260505152602 28 154 8.0 22.5 0.00 0.00 0.00 54 1016.3
20260505152043 27 105 8.0 19.3 0.00 0.00 0.00 59 1016.4
20260505151047 27 120 11.3 22.5 0.00 0.00 0.00 57 1016.4
20260505140549 26 94 9.7 19.3 0.00 0.00 0.00 67 1015.9
20260505125010 22 124 6.4 12.9 0.00 0.00 0.00 79 1016.0
20260505124022 22 96 3.2 11.3 0.00 0.00 0.00 80 1016.1
20260505122538 22 96 3.2 9.7 0.00 0.00 0.00 84 1016.1
20260505122014 21 95 1.6 8.0 0.00 0.00 0.00 88 1016.1
20260505120534 20 35 1.6 6.4 0.00 0.00 0.00 91 1016.0
20260505115533 19 287 0.0 3.2 0.00 0.00 0.00 93 1015.8
20260505114530 18 287 0.0 0.0 0.00 0.00 0.00 93 1015.9
20260505113532 17 286 0.0 0.0 0.00 0.00 0.00 94 1015.6
20260505112528 17 286 0.0 0.0 0.00 0.00 0.00 94 1015.5
20260505111527 17 286 0.0 0.0 0.00 0.00 0.00 94 1015.2
20260505110530 17 48 0.0 1.6 0.00 0.00 0.00 93 1015.3
20260505101514 16 48 0.0 0.0 0.00 0.00 0.00 93 1014.9
20260505100512 16 48 0.0 0.0 0.00 0.00 0.00 93 1014.7
20260505095510 16 48 0.0 0.0 0.00 0.00 0.00 93 1014.6
20260505094943 16 48 0.0 0.0 0.00 0.00 0.00 93 1014.5
20260505093511 16 48 0.0 0.0 0.00 0.00 0.00 93 1014.4
20260505092510 16 48 0.0 0.0 0.00 0.00 0.00 93 1014.4
20260505091945 17 48 0.0 0.0 0.00 0.00 0.00 93 1014.6
20260505090515 17 48 0.0 3.2 0.00 0.00 0.00 93 1014.3
20260505085501 17 48 0.0 1.6 0.00 0.00 0.00 93 1014.3
20260505084500 17 48 0.0 1.6 0.00 0.00 0.00 93 1014.3
20260505083501 17 48 0.0 1.6 0.00 0.00 0.00 92 1014.3
20260505082502 17 48 0.0 1.6 0.00 0.00 0.00 92 1014.3
20260505081501 17 48 0.0 0.0 0.00 0.00 0.00 92 1014.3
20260505080926 17 48 0.0 0.0 0.00 0.00 0.00 92 1014.3
20260505075451 17 48 0.0 0.0 0.00 0.00 0.00 91 1014.4
20260505074941 17 48 0.0 0.0 0.00 0.00 0.00 91 1014.3
20260505073450 17 48 0.0 1.6 0.00 0.00 0.00 91 1014.5
20260505072452 17 48 0.0 4.8 0.00 0.00 0.00 91 1014.6
20260505071451 17 48 1.6 4.8 0.00 0.00 0.00 91 1014.4
20260505070448 17 48 0.0 3.2 0.00 0.00 0.00 90 1014.6
20260505065449 17 48 0.0 0.0 0.00 0.00 0.00 90 1014.6
20260505064448 17 48 0.0 0.0 0.00 0.00 0.00 89 1014.9
20260505063939 18 48 0.0 1.6 0.00 0.00 0.00 88 1014.9
20260505062921 18 48 0.0 3.2 0.00 0.00 0.00 88 1015.0
20260505061450 18 48 1.6 3.2 0.00 0.00 0.00 87 1015.1
20260505060446 18 48 0.0 3.2 0.00 0.00 0.00 86 1015.3
20260505055447 18 48 1.6 3.2 0.00 0.00 0.00 86 1015.4
20260505054447 18 48 0.0 3.2 0.00 0.00 0.00 86 1015.5
20260505053448 18 48 0.0 3.2 0.00 0.00 0.00 85 1015.6
20260505052446 19 48 0.0 3.2 0.00 0.00 0.00 85 1015.8
20260505051434 19 48 0.0 0.0 0.00 0.00 0.00 84 1015.9
20260505050434 19 48 0.0 3.2 0.00 0.00 0.00 85 1016.1
20260505041433 20 10 3.2 6.4 0.00 0.00 0.00 83 1016.1
20260505040433 19 82 1.6 4.8 0.00 0.00 0.00 84 1016.0
20260505035430 19 82 1.6 4.8 0.00 0.00 0.00 83 1016.2
20260505034431 19 82 1.6 3.2 0.00 0.00 0.00 83 1016.1
20260505033432 19 82 1.6 3.2 0.00 0.00 0.00 82 1016.3
20260505032903 20 82 1.6 4.8 0.00 0.00 0.00 82 1016.2
20260505031427 20 82 1.6 4.8 0.00 0.00 0.00 81 1016.2
20260505030428 20 82 1.6 6.4 0.00 0.00 0.00 81 1016.2
20260505025428 20 80 1.6 4.8 0.00 0.00 0.00 80 1016.2
20260505024427 20 81 1.6 6.4 0.00 0.00 0.00 79 1016.2
20260505023427 21 81 3.2 8.0 0.00 0.00 0.00 78 1016.1
20260505022420 21 94 3.2 6.4 0.00 0.00 0.00 78 1016.2
20260505021902 21 81 4.8 12.9 0.00 0.00 0.00 76 1016.0
20260505020419 21 100 4.8 14.5 0.00 0.00 0.00 76 1016.1
20260505015408 21 87 4.8 8.0 0.00 0.00 0.00 76 1016.0
20260505014402 21 67 3.2 6.4 0.00 0.00 0.00 75 1016.0
20260505013400 21 108 4.8 12.9 0.00 0.00 0.00 74 1015.8
20260505012350 21 85 3.2 8.0 0.00 0.00 0.00 73 1015.7
20260505011355 22 104 3.2 9.7 0.00 0.00 0.00 73 1015.5
20260505010344 22 89 4.8 14.5 0.00 0.00 0.00 72 1015.6
20260505005341 22 102 6.4 12.9 0.00 0.00 0.00 70 1015.6
20260505004338 22 75 4.8 12.9 0.00 0.00 0.00 69 1015.6
20260505003341 22 88 4.8 14.5 0.00 0.00 0.00 69 1015.4
20260505002334 23 113 6.4 16.1 0.00 0.00 0.00 68 1015.1
20260505001335 23 116 8.0 16.1 0.00 0.00 0.00 67 1015.0
20260505000815 23 109 9.7 20.9 0.00 0.00 0.00 66 1015.1
20260504235829 23 42 8.0 17.7 0.00 0.00 0.00 65 1015.0
20260504234322 24 98 6.4 20.9 0.00 0.00 0.00 64 1014.7
20260504233319 24 93 9.7 20.9 0.00 0.00 0.00 64 1014.5
20260504232321 25 106 9.7 17.7 0.00 0.00 0.00 63 1014.6
20260504231759 25 125 9.7 20.9 0.00 0.00 0.00 62 1014.5
20260504231237 25 90 6.4 20.9 0.00 0.00 0.00 61 1014.5